ATLAS 5 CENTAUR DEB, 47245

Orbit data source: Space-Track

ATLAS 5 CENTAUR DEB, 47245 is space debris in HEO originally from a launch on Wed, 17 Oct 2018 UTC launched from the Air Force Eastern Test Range (AFETR). Debris objects in space refer to the collection of defunct objects orbiting the Earth. Examples of debris include non-operational satellites, rocket bodies, and fragments generated from explosions, collisions, or faulty payload assembly.

Loading next visibility...
Identifier
47245, 2018-079EF
Orbit
HEO
Country
Flag of USUS
Related business
Flag of USUnited Launch Alliance/Lockheed Martin (US)
Manufacturer
ULA Decatur
Mission
Spacecraft
Bus & Motor
Unknown
Mass
Unknown
Launch date (UTC)
2018-10-17 (8 years ago)
Launch vehicle
Unknown
Launch site
Air Force Eastern Test Range (AFETR)
Object type
Payload
Rocket body
Debris
Shape & HBR
Unknown shape, 1.1 m
Radar Cross Section
RCS unknown

Expand to show TLE details & history
Last TLE update: 2 days ago

TLE from 2 days ago
0 ATLAS 5 CENTAUR DEB
1 47245U 18079EF  26171.12698556 -.00000139  00000-0  00000+0 0  9999
2 47245  13.2997  21.2589 4936014   2.9216 359.2228  1.87241153 37990
Epoch: 2026-06-20T03:02Z
TLE epoch observation values (Epoch: 2026-06-20T03:02:51.552Z)
Latitude
0.00008°
Longitude
67.20236°
Altitude
7,728.157 km
Speed
6.494 km/s
True Right ascension
01h 25m 03s
True Declination
0° 00' 00"
Sunlit
Object was in daylight at epoch
Visualization orbit readout
Latitude
Unknown
Longitude
Unknown
Altitude
Unknown
Speed
Unknown
Apparent Right ascension
Unknown
Apparent Declination
Unknown
Sunlit
N/A
Visualization observer readout
Local Sidereal Time
21:51:23
Azimuth
Unknown
Elevation
Unknown
Doppler factor
Unknown
Orbital elements
Apogee altitude
35,155.877 km
Perigee altitude
7,703.777 km
Semi-major axis
27,807.964 km
Eccentricity
0.4936
Inclination
13.2997°
RAAN
21.2589°
Arg. of periapsis
2.9216°
True anomaly
357.36482°
Mean anomaly
359.2228°
Eccentric anomaly
358.46542°
Mean motion
0.46805 °/min
Orbital period
769.15 mins
BSTAR
0
Loading maneuver chart data...
Computing Atmospheric mass density...

Documentation

Showing up to 5 results
|